Date String (YYYY-MM-DD hh:mm:ss) UTC,Instrument flags,Ambient pressure (hPa),Sample flow (lpm),Bypass flow (lpm),Sample temperature (°C),Ambient temperature (°C),ASC tube jacket temperature (°C),LED temperature (°C),Box temperature (°C),Sample RH (%),Span deviation,Mass concentration (μg/m³),Mass concentration (μg/m³),Mass concentration (μg/m³)
DateTimeUTC,F1_M11,P_M11,Q1_M11,Q2_M11,T1_M11,T2_M11,T3_M11,T4_M11,T5_M11,U1_M11,ZSPAN_M11,X0_M11,X2_M11,X1_M11
2022-08-03 16:00:00,,0829.6,5.00,0.00,31.8,28.8,00.0,39.8,32.4,33.6,0000.0,0012.22,0004.61,0003.89
2022-08-03 16:01:00,,0829.7,5.00,0.00,31.8,28.9,00.0,39.8,32.4,33.3,0000.0,0011.52,0004.63,0003.92
2022-08-03 16:02:00,,0829.7,4.99,0.00,31.8,28.9,00.0,39.9,32.4,32.7,0000.0,0011.11,0004.67,0003.95
2022-08-03 16:03:00,,0829.6,4.99,0.00,31.8,28.6,00.0,39.9,32.3,32.0,0000.0,0010.49,0004.72,0004.00
2022-08-03 16:04:00,,0829.6,5.01,0.00,31.7,27.9,00.0,39.9,32.1,32.6,0000.0,0009.47,0004.74,0004.03
2022-08-03 16:05:00,,0829.6,4.99,0.00,31.6,27.6,00.0,39.8,32.1,33.2,0000.0,0009.12,0004.74,0004.06
2022-08-03 16:06:00,,0829.6,4.99,0.00,31.5,27.6,00.0,39.8,32.0,33.3,0000.0,0009.41,0004.77,0004.11
2022-08-03 16:07:00,,0829.7,5.01,0.00,31.4,27.7,00.0,39.8,32.0,34.4,0000.0,0009.47,0004.81,0004.14
2022-08-03 16:08:00,,0829.8,5.00,0.00,31.3,27.8,00.0,39.8,32.0,34.8,0000.0,0009.55,0004.82,0004.17
2022-08-03 16:09:00,,0829.6,5.00,0.00,31.3,28.0,00.0,39.7,32.1,34.2,0000.0,0009.69,0004.86,0004.21
2022-08-03 16:10:00,,0829.9,4.99,0.00,31.2,28.2,00.0,39.7,32.1,35.2,0000.0,0010.12,0004.92,0004.23
2022-08-03 16:11:00,,0829.7,5.01,0.00,31.3,28.3,00.0,39.7,32.2,33.7,0000.0,0009.91,0004.91,0004.24
2022-08-03 16:12:00,,0829.7,5.01,0.00,31.4,28.5,00.0,39.7,32.3,33.7,0000.0,0010.00,0004.91,0004.26
2022-08-03 16:13:00,,0829.7,4.99,0.00,31.5,28.6,00.0,39.7,32.3,33.3,0000.0,0010.17,0004.90,0004.27
2022-08-03 16:14:00,,0829.7,4.99,0.00,31.5,28.7,00.0,39.7,32.3,32.7,0000.0,0010.15,0004.89,0004.28
2022-08-03 16:15:00,,0829.7,5.01,0.00,31.5,28.8,00.0,39.7,32.3,33.1,0000.0,0010.21,0004.91,0004.29
2022-08-03 16:16:00,,0829.8,4.99,0.00,31.5,28.9,00.0,39.8,32.4,33.1,0000.0,0010.93,0004.93,0004.30
2022-08-03 16:17:00,,0829.8,5.00,0.00,31.5,28.8,00.0,39.8,32.3,32.5,0000.0,0010.75,0004.98,0004.32
2022-08-03 16:18:00,,0829.8,5.01,0.00,31.4,28.1,00.0,39.7,32.2,31.3,0000.0,0010.53,0005.01,0004.35
2022-08-03 16:19:00,,0829.8,4.99,0.00,31.3,27.7,00.0,39.7,32.0,31.4,0000.0,0010.47,0005.05,0004.40
2022-08-03 16:20:00,,0829.8,5.00,0.00,31.2,27.6,00.0,39.7,32.0,31.8,0000.0,0010.44,0005.08,0004.46
2022-08-03 16:21:00,,0829.8,5.01,0.00,31.1,27.6,00.0,39.6,32.0,32.4,0000.0,0010.47,0005.08,0004.50
2022-08-03 16:22:00,,0829.8,4.99,0.00,31.0,27.8,00.0,39.6,32.0,32.6,0000.0,0010.92,0005.13,0004.56
2022-08-03 16:23:00,,0829.8,5.01,0.00,31.0,27.9,00.0,39.6,32.0,32.5,0000.0,0010.74,0005.15,0004.60
2022-08-03 16:24:00,,0829.8,5.00,0.00,30.9,28.1,00.0,39.5,32.0,32.7,0000.0,0010.50,0005.16,0004.64
2022-08-03 16:25:00,,0829.8,5.00,0.00,30.9,28.2,00.0,39.5,32.0,33.2,0000.0,0010.33,0005.18,0004.67
2022-08-03 16:26:00,,0829.8,5.01,0.00,30.9,28.4,00.0,39.5,32.1,33.1,0000.0,0010.44,0005.21,0004.70
2022-08-03 16:27:00,,0829.9,4.99,0.00,30.9,28.5,00.0,39.5,32.1,32.9,0000.0,0009.88,0005.26,0004.74
2022-08-03 16:28:00,,0829.8,5.00,0.00,30.9,28.6,00.0,39.5,32.1,33.0,0000.0,0009.47,0005.28,0004.79
2022-08-03 16:29:00,,0829.8,5.00,0.00,30.8,28.7,00.0,39.5,32.2,33.4,0000.0,0009.46,0005.29,0004.80
2022-08-03 16:30:00,,0829.9,5.00,0.00,30.8,28.8,00.0,39.5,32.2,33.5,0000.0,0009.32,0005.28,0004.82
2022-08-03 16:31:00,,0829.9,5.01,0.00,30.8,28.9,00.0,39.5,32.2,32.7,0000.0,0010.01,0005.32,0004.84
2022-08-03 16:32:00,,0829.8,4.99,0.00,30.8,28.4,00.0,39.4,32.1,32.7,0000.0,0010.03,0005.39,0004.89
2022-08-03 16:33:00,,0829.8,5.00,0.00,30.7,27.8,00.0,39.4,32.0,32.7,0000.0,0009.66,0005.45,0004.92
2022-08-03 16:34:00,,0829.8,4.99,0.00,30.7,27.6,00.0,39.4,31.9,32.6,0000.0,0009.86,0005.52,0004.95
2022-08-03 16:35:00,,0829.8,5.01,0.00,30.6,27.5,00.0,39.3,31.8,32.7,0000.0,0010.06,0005.59,0004.99
2022-08-03 16:36:00,,0829.8,4.99,0.00,30.5,27.7,00.0,39.2,31.8,32.9,0000.0,0010.25,0005.65,0005.03
2022-08-03 16:37:00,,0829.8,5.01,0.00,30.4,27.8,00.0,39.2,31.8,33.5,0000.0,0010.66,0005.69,0005.07
2022-08-03 16:38:00,,0829.8,5.00,0.00,30.4,28.0,00.0,39.2,31.8,33.3,0000.0,0010.64,0005.70,0005.10
2022-08-03 16:39:00,,0829.8,5.00,0.00,30.4,28.1,00.0,39.2,31.9,32.8,0000.0,0011.07,0005.75,0005.12
2022-08-03 16:40:00,,0829.8,5.00,0.00,30.4,28.3,00.0,39.2,31.9,32.8,0000.0,0011.88,0005.82,0005.17
2022-08-03 16:41:00,,0829.8,5.00,0.00,30.4,28.4,00.0,39.1,31.9,33.3,0000.0,0012.38,0005.87,0005.21
2022-08-03 16:42:00,,0829.8,4.99,0.00,30.4,28.5,00.0,39.1,32.0,33.7,0000.0,0011.80,0005.87,0005.21
2022-08-03 16:43:00,,0829.8,5.00,0.00,30.4,28.7,00.0,39.1,32.0,33.9,0000.0,0011.45,0005.87,0005.21
2022-08-03 16:44:00,,0829.9,4.99,0.00,30.4,28.8,00.0,39.1,32.0,33.4,0000.0,0011.31,0005.84,0005.21
2022-08-03 16:45:00,,0829.8,5.00,0.00,30.4,28.8,00.0,39.1,32.0,33.7,0000.0,0011.27,0005.87,0005.23
2022-08-03 16:46:00,,0829.8,5.02,0.00,30.4,28.2,00.0,39.1,31.9,33.5,0000.0,0011.31,0005.92,0005.25
2022-08-03 16:47:00,,0829.8,5.00,0.00,30.3,27.7,00.0,39.1,31.8,33.8,0000.0,0011.39,0005.94,0005.26
2022-08-03 16:48:00,,0829.9,5.00,0.00,30.3,27.5,00.0,39.0,31.7,33.9,0000.0,0010.93,0005.96,0005.29
2022-08-03 16:49:00,,0829.8,5.00,0.00,30.2,27.6,00.0,39.0,31.6,33.4,0000.0,0011.33,0006.01,0005.32
2022-08-03 16:50:00,,0829.9,5.01,0.00,30.1,27.7,00.0,38.9,31.6,32.4,0000.0,0011.46,0006.06,0005.35
2022-08-03 16:51:00,,0829.9,5.00,0.00,30.1,27.8,00.0,38.9,31.7,31.6,0000.0,0010.59,0006.05,0005.37
2022-08-03 16:52:00,,0829.9,4.99,0.00,30.1,28.0,00.0,38.9,31.7,32.1,0000.0,0010.03,0006.09,0005.39
2022-08-03 16:53:00,,0829.9,5.00,0.00,30.1,28.1,00.0,38.9,31.8,32.2,0000.0,0010.25,0006.16,0005.43
2022-08-03 16:54:00,,0829.9,5.00,0.00,30.1,28.3,00.0,38.9,31.8,32.4,0000.0,0011.51,0006.20,0005.48
2022-08-03 16:55:00,,0829.9,5.00,0.00,30.1,28.4,00.0,38.9,31.8,33.0,0000.0,0012.37,0006.24,0005.51
2022-08-03 16:56:00,,0829.8,4.99,0.00,30.1,28.6,00.0,38.9,31.9,33.5,0000.0,0012.99,0006.26,0005.53
2022-08-03 16:57:00,,0829.8,5.00,0.00,30.1,28.7,00.0,38.9,31.9,33.3,0000.0,0012.92,0006.24,0005.54
2022-08-03 16:58:00,,0829.9,5.00,0.00,30.2,28.8,00.0,38.9,32.0,33.4,0000.0,0012.93,0006.28,0005.57
2022-08-03 16:59:00,,0829.9,5.00,0.00,30.2,28.7,00.0,38.9,31.9,33.1,0000.0,0013.02,0006.33,0005.60
